KTPA

Tampa International Airport

Airport
ICAO code
KTPA
Summary
ICAO Region
NAM
ICAO Territory
Location

Tampa, Florida,

Coordinates
27° 58' 37" N , 82° 32' 0" W
KCC
Metar
KTPA 151053Z 03004KT 10SM FEW030 SCT120 BKN180 BKN250 25/24 A3010 RMK AO2 SLP191 T02500239

Description

International airport 6 nm west of Tampa, Florida, USA.

Climatology

Humid “subtropical” climate (Köppen climate classification Cfa) - characterized by hot, humid summers and cool winters. Significant amounts of precipitation occur in all seasons in most areas.

Runways

Designator Length Width Surface Rops
9/27 2133 46 PEM Yes/Yes
18L/36R 2530 46 PEM Yes/Yes
18R/36L 3353 46 CON Yes/Yes

Airport map

Aerial View

SKYbrary Partners:

Safety knowledge contributed by: